Showing default

KUIPER-00504, 68885

Orbit data source: Space-Track

KUIPER-00504, 68885 is an American payload satellite in LEO that was launched on Tue, 28 Apr 2026 UTC launched from the Air Force Eastern Test Range (AFETR). Payload-class satellites include a variety of spacecraft equipped with specific instruments for various scientific and technological missions. These include communications satellites like Starlink; space stations such as the ISS; scientific satellites like the Hubble; Earth observation satellites from companies like Planet Labs, Umbra, and HawkEye 360; GPS; miniature CubeSats for education and research; and military/defense satellites.

Loading next visibility...
Identifier
68885, 2026-095X
Orbit
LEO
Country
Flag of USUS
Related business
None
Manufacturer
Unknown
Mission
Operational spacecraft
Bus & Motor
Unknown
Mass
Unknown
Launch date (UTC)
2026-04-28 (4 days ago)
Launch vehicle
Unknown
Launch site
Air Force Eastern Test Range (AFETR)
Object type
Payload
Rocket body
Debris
Shape & HBR
Unknown
Radar Cross Section
RCS unknown

Expand to show TLE details & history
Last TLE update: 7 hours ago

TLE from 7 hours ago
0 KUIPER-00504
1 68885U 26095X   26122.16670139 -.00005292  00000-0 -13951-3 0  9995
2 68885  51.8698 104.9678 0012438 141.0243  35.9565 15.35531956  1302
Epoch: 2026-05-02T04:00Z
TLE epoch observation values (Epoch: 2026-05-02T04:00:03.000Z)
Latitude
2.24494°
Longitude
3.11324°
Altitude
452.959 km
Speed
7.646 km/s
True Right ascension
18h 52m 51s
True Declination
2° 13' 51"
Sunlit
Object was in full shadow at epoch
Visualization orbit readout
Latitude
Unknown
Longitude
Unknown
Altitude
Unknown
Speed
Unknown
Apparent Right ascension
Unknown
Apparent Declination
Unknown
Sunlit
N/A
Visualization observer readout
Local Sidereal Time
18:40:40
Azimuth
Unknown
Elevation
Unknown
Doppler factor
Unknown
Orbital elements
Apogee altitude
468.313 km
Perigee altitude
451.303 km
Semi-major axis
6,837.945 km
Eccentricity
0.00124
Inclination
51.8698°
RAAN
104.9678°
Arg. of periapsis
141.0243°
True anomaly
36.04029°
Mean anomaly
35.9565°
Eccentric anomaly
35.99839°
Mean motion
3.83844 °/min
Orbital period
93.79 mins
BSTAR
-0.00013951
Loading maneuver chart data...
Computing Atmospheric mass density...
Loading historical data...
Loading historical data...
Loading historical data...
Loading historical data...
Loading historical data...
Loading historical data...
Loading historical data...

Documentation

Showing up to 5 results
|